BEL56L LIMC-EBBR

Flight info

Callsign BEL56L
Flight time 1h 8m
Altitude 32000
Route AOSTA DCT ORSUD DCT MOLUS DCT GILIR DCT PENDU DCT IXILU DCT GIVOR DCT SORAL DCT IBERA N853 DIK Y37 BATTY
Aircraft A320/M-SDE3FGHIRWY/LB1

Departure

Time 2026-05-05 07:37
Airport Milan Malpensa International Airport (LIMC)

Arrival

Time 2026-05-05 08:45
Airport Brussels Airport (EBBR)
Time Latitude Longitude Altitude Speed Heading
2026-05-05 07:02 45.62421 8.71773 728 ft 0 kts 323°
2026-05-05 07:24 45.62415 8.71779 728 ft 2 kts 324°
2026-05-05 07:24 45.62401 8.71792 729 ft 2 kts 330°
2026-05-05 07:24 45.62387 8.71803 728 ft 2 kts 338°
2026-05-05 07:25 45.62371 8.71811 727 ft 2 kts 350°
2026-05-05 07:25 45.62355 8.71813 728 ft 2 kts
2026-05-05 07:25 45.62339 8.71807 727 ft 2 kts 34°
2026-05-05 07:25 45.62327 8.71791 727 ft 2 kts 59°
2026-05-05 07:26 45.62322 8.71778 725 ft 1 kts 74°
2026-05-05 07:26 45.62321 8.71777 725 ft 0 kts 76°
2026-05-05 07:28 45.62325 8.71802 725 ft 9 kts 78°
2026-05-05 07:28 45.62341 8.71957 728 ft 20 kts 73°
2026-05-05 07:29 45.62374 8.72142 727 ft 15 kts 78°
2026-05-05 07:29 45.62354 8.72223 726 ft 3 kts 158°
2026-05-05 07:29 45.62322 8.72235 727 ft 10 kts 165°
2026-05-05 07:29 45.62207 8.72268 723 ft 24 kts 169°
2026-05-05 07:30 45.62035 8.72314 721 ft 23 kts 169°
2026-05-05 07:30 45.61761 8.72390 716 ft 19 kts 168°
2026-05-05 07:30 45.61625 8.72428 711 ft 21 kts 170°
2026-05-05 07:31 45.61488 8.72463 707 ft 18 kts 170°
2026-05-05 07:31 45.61386 8.72492 705 ft 15 kts 168°
2026-05-05 07:31 45.61290 8.72519 703 ft 13 kts 169°
2026-05-05 07:31 45.61210 8.72541 701 ft 10 kts 169°
2026-05-05 07:32 45.61150 8.72558 696 ft 8 kts 169°
2026-05-05 07:32 45.61098 8.72587 692 ft 10 kts 141°
2026-05-05 07:32 45.61084 8.72703 695 ft 15 kts 78°
2026-05-05 07:32 45.61109 8.72871 698 ft 20 kts 77°
2026-05-05 07:33 45.61150 8.73068 696 ft 19 kts 44°
2026-05-05 07:33 45.61262 8.73168 695 ft 21 kts 36°
2026-05-05 07:33 45.61390 8.73270 698 ft 20 kts
2026-05-05 07:33 45.61522 8.73233 697 ft 19 kts 348°
2026-05-05 07:34 45.61614 8.73253 701 ft 13 kts 59°
2026-05-05 07:34 45.61636 8.73386 699 ft 15 kts 85°
2026-05-05 07:34 45.61599 8.73520 697 ft 14 kts 115°
2026-05-05 07:34 45.61589 8.73591 699 ft 0 kts 93°
2026-05-05 07:35 45.61589 8.73615 702 ft 8 kts 92°
2026-05-05 07:35 45.61625 8.73726 701 ft 12 kts 22°
2026-05-05 07:36 45.61674 8.73721 701 ft 0 kts 354°
2026-05-05 07:36 45.61682 8.73720 703 ft 5 kts 354°
2026-05-05 07:36 45.61984 8.73639 712 ft 93 kts 348°
2026-05-05 07:36 45.62897 8.73381 732 ft 170 kts 349°
2026-05-05 07:37 45.64081 8.73061 1684 ft 174 kts 350°
2026-05-05 07:37 45.65275 8.72766 2865 ft 174 kts 352°
2026-05-05 07:37 45.66470 8.72614 3898 ft 172 kts
2026-05-05 07:37 45.67726 8.72618 4649 ft 192 kts
2026-05-05 07:38 45.69151 8.72625 5319 ft 217 kts
2026-05-05 07:38 45.70746 8.72632 6108 ft 240 kts
2026-05-05 07:38 45.72373 8.73164 7066 ft 244 kts 36°
2026-05-05 07:38 45.73486 8.74948 8138 ft 244 kts 66°
2026-05-05 07:39 45.74198 8.77177 9292 ft 249 kts 75°
2026-05-05 07:39 45.74473 8.79617 10335 ft 251 kts 96°
2026-05-05 07:39 45.74185 8.82125 11230 ft 261 kts 112°
2026-05-05 07:39 45.73537 8.84597 12217 ft 269 kts 116°
2026-05-05 07:40 45.72587 8.86901 13239 ft 270 kts 137°
2026-05-05 07:40 45.71079 8.88484 14240 ft 270 kts 160°
2026-05-05 07:40 45.69265 8.89112 15216 ft 269 kts 181°
2026-05-05 07:40 45.67442 8.88726 16188 ft 271 kts 201°
2026-05-05 07:41 45.65820 8.87342 17180 ft 275 kts 222°
2026-05-05 07:41 45.64671 8.85123 18183 ft 283 kts 243°
2026-05-05 07:41 45.64221 8.82349 19052 ft 294 kts 264°
2026-05-05 07:41 45.64196 8.79401 19936 ft 299 kts 265°
2026-05-05 07:42 45.64152 8.76405 20812 ft 304 kts 264°
2026-05-05 07:42 45.64065 8.73371 21676 ft 307 kts 259°
2026-05-05 07:42 45.63654 8.70308 22107 ft 325 kts 253°
2026-05-05 07:42 45.63127 8.67044 22336 ft 348 kts 253°
2026-05-05 07:43 45.62552 8.63564 22515 ft 371 kts 253°
2026-05-05 07:43 45.61953 8.59904 23021 ft 383 kts 253°
2026-05-05 07:43 45.61353 8.56157 23714 ft 390 kts 253°
2026-05-05 07:43 45.60753 8.52356 24343 ft 395 kts 253°
2026-05-05 07:44 45.60160 8.48556 24969 ft 399 kts 253°
2026-05-05 07:44 45.59551 8.44666 25559 ft 403 kts 253°
2026-05-05 07:44 45.58933 8.40739 26163 ft 407 kts 253°
2026-05-05 07:44 45.58334 8.36763 26771 ft 413 kts 256°
2026-05-05 07:45 45.58099 8.32614 27328 ft 422 kts 266°
2026-05-05 07:45 45.58380 8.28402 27867 ft 432 kts 276°
2026-05-05 07:45 45.59185 8.24222 28437 ft 441 kts 284°
2026-05-05 07:45 45.60164 8.20051 29022 ft 445 kts 284°
2026-05-05 07:46 45.61139 8.15878 29580 ft 449 kts 284°
2026-05-05 07:46 45.62131 8.11617 30121 ft 453 kts 284°
2026-05-05 07:46 45.63127 8.07325 30551 ft 456 kts 284°
2026-05-05 07:46 45.64124 8.03002 30980 ft 458 kts 284°
2026-05-05 07:47 45.65118 7.98666 31358 ft 460 kts 284°
2026-05-05 07:47 45.66110 7.94318 31753 ft 462 kts 283°
2026-05-05 07:47 45.67110 7.89941 31971 ft 461 kts 283°
2026-05-05 07:47 45.68096 7.85651 32018 ft 445 kts 283°
2026-05-05 07:48 45.69986 7.77444 32010 ft 433 kts 283°
2026-05-05 07:48 45.71846 7.69259 32015 ft 432 kts 283°
2026-05-05 07:49 45.73700 7.61070 32024 ft 431 kts 283°
2026-05-05 07:49 45.75539 7.52885 32030 ft 432 kts 283°
2026-05-05 07:50 45.77370 7.44699 32026 ft 431 kts 283°
2026-05-05 07:50 45.79768 7.36770 32026 ft 441 kts 298°
2026-05-05 07:51 45.81643 7.33273 32023 ft 446 kts 309°
2026-05-05 07:51 45.83907 7.30287 32018 ft 451 kts 319°
2026-05-05 07:51 45.89042 7.25044 32004 ft 453 kts 321°
2026-05-05 07:52 45.93316 7.20688 31983 ft 453 kts 321°
2026-05-05 07:52 45.98460 7.15433 31942 ft 454 kts 321°
2026-05-05 07:53 46.03612 7.10163 31934 ft 454 kts 321°
2026-05-05 07:53 46.08764 7.04873 31924 ft 455 kts 321°
2026-05-05 07:54 46.13917 6.99565 31921 ft 455 kts 321°
2026-05-05 07:54 46.19040 6.94272 31919 ft 456 kts 321°
2026-05-05 07:55 46.24221 6.88919 31916 ft 457 kts 321°
2026-05-05 07:55 46.29393 6.83567 31912 ft 457 kts 321°
2026-05-05 07:56 46.34542 6.78232 31915 ft 457 kts 321°
2026-05-05 07:56 46.39716 6.72839 31915 ft 458 kts 321°
2026-05-05 07:57 46.44964 6.67602 31911 ft 460 kts 328°
2026-05-05 07:57 46.50747 6.63488 31914 ft 462 kts 332°
2026-05-05 07:58 46.56503 6.59446 31915 ft 463 kts 332°
2026-05-05 07:58 46.62289 6.55350 31912 ft 463 kts 332°
2026-05-05 07:59 46.68087 6.51241 31911 ft 463 kts 332°
2026-05-05 07:59 46.73892 6.47125 31908 ft 463 kts 332°
2026-05-05 08:00 46.79686 6.43004 31905 ft 463 kts 332°
2026-05-05 08:00 46.85479 6.38871 31906 ft 464 kts 332°
2026-05-05 08:01 46.91277 6.34732 31900 ft 464 kts 332°
2026-05-05 08:01 46.97069 6.30582 31895 ft 464 kts 332°
2026-05-05 08:02 47.02833 6.26439 31895 ft 464 kts 332°
2026-05-05 08:02 47.08633 6.22266 31897 ft 464 kts 332°
2026-05-05 08:03 47.14423 6.18092 31895 ft 464 kts 332°
2026-05-05 08:03 47.20226 6.13906 31894 ft 463 kts 331°
2026-05-05 08:04 47.26012 6.09712 31893 ft 463 kts 331°
2026-05-05 08:04 47.31829 6.05607 31895 ft 465 kts 336°
2026-05-05 08:05 47.38126 6.03457 31890 ft 467 kts 355°
2026-05-05 08:05 47.44591 6.03488 31892 ft 467 kts
2026-05-05 08:06 47.51111 6.03641 31884 ft 467 kts
2026-05-05 08:06 47.57610 6.03784 31883 ft 467 kts
2026-05-05 08:07 47.64077 6.03924 31883 ft 467 kts
2026-05-05 08:07 47.70591 6.04065 31883 ft 467 kts
2026-05-05 08:08 47.77023 6.05247 31886 ft 466 kts 15°
2026-05-05 08:08 47.83309 6.07619 31886 ft 466 kts 15°
2026-05-05 08:09 47.89590 6.09974 31889 ft 466 kts 15°
2026-05-05 08:09 47.95882 6.12341 31890 ft 465 kts 15°
2026-05-05 08:10 48.02120 6.14707 31898 ft 465 kts 15°
2026-05-05 08:10 48.08403 6.17095 31891 ft 465 kts 15°
2026-05-05 08:11 48.14677 6.19479 31887 ft 465 kts 15°
2026-05-05 08:11 48.20953 6.21864 31883 ft 465 kts 15°
2026-05-05 08:12 48.27236 6.24257 31881 ft 465 kts 15°
2026-05-05 08:12 48.33511 6.26660 31883 ft 465 kts 14°
2026-05-05 08:13 48.39791 6.29074 31877 ft 466 kts 14°
2026-05-05 08:13 48.46028 6.31482 31882 ft 466 kts 14°
2026-05-05 08:14 48.52318 6.33907 31886 ft 466 kts 14°
2026-05-05 08:14 48.58611 6.36329 31885 ft 466 kts 14°
2026-05-05 08:15 48.64905 6.38732 31880 ft 466 kts 11°
2026-05-05 08:15 48.71291 6.39701 31882 ft 464 kts
2026-05-05 08:16 48.77740 6.40337 31888 ft 464 kts
2026-05-05 08:16 48.84185 6.40990 31887 ft 464 kts
2026-05-05 08:17 48.90635 6.41657 31887 ft 464 kts
2026-05-05 08:17 48.97080 6.42315 31887 ft 464 kts
2026-05-05 08:18 49.03520 6.42971 31887 ft 463 kts
2026-05-05 08:18 49.06695 6.43291 31659 ft 463 kts
2026-05-05 08:18 49.09915 6.43512 31400 ft 461 kts 356°
2026-05-05 08:19 49.13082 6.43014 31147 ft 456 kts 345°
2026-05-05 08:19 49.16140 6.41841 30896 ft 454 kts 341°
2026-05-05 08:19 49.19200 6.40587 30649 ft 454 kts 341°
2026-05-05 08:19 49.22245 6.39345 30395 ft 454 kts 342°
2026-05-05 08:20 49.25298 6.38105 30152 ft 453 kts 342°
2026-05-05 08:20 49.28348 6.36866 29897 ft 453 kts 342°
2026-05-05 08:20 49.31396 6.35622 29612 ft 453 kts 342°
2026-05-05 08:20 49.34432 6.34382 29333 ft 451 kts 342°
2026-05-05 08:21 49.37458 6.33144 29046 ft 448 kts 342°
2026-05-05 08:21 49.40467 6.31912 28767 ft 446 kts 342°
2026-05-05 08:21 49.43464 6.30685 28495 ft 444 kts 342°
2026-05-05 08:21 49.46435 6.29462 28223 ft 442 kts 342°
2026-05-05 08:22 49.49399 6.28238 27962 ft 439 kts 342°
2026-05-05 08:22 49.52351 6.27020 27859 ft 437 kts 342°
2026-05-05 08:22 49.55253 6.25825 27891 ft 438 kts 342°
2026-05-05 08:22 49.58197 6.24611 27894 ft 438 kts 342°
2026-05-05 08:23 49.61136 6.23394 27894 ft 438 kts 342°
2026-05-05 08:23 49.64073 6.22173 27890 ft 437 kts 342°
2026-05-05 08:23 49.67021 6.20945 27895 ft 437 kts 342°
2026-05-05 08:23 49.69958 6.19725 27891 ft 437 kts 342°
2026-05-05 08:24 49.72894 6.18508 27893 ft 437 kts 342°
2026-05-05 08:24 49.75829 6.17292 27893 ft 436 kts 342°
2026-05-05 08:24 49.78766 6.16071 27891 ft 436 kts 342°
2026-05-05 08:24 49.81643 6.14630 27889 ft 433 kts 334°
2026-05-05 08:25 49.84250 6.12454 27885 ft 429 kts 323°
2026-05-05 08:25 49.86560 6.09574 27885 ft 424 kts 312°
2026-05-05 08:25 49.88485 6.06142 27884 ft 420 kts 302°
2026-05-05 08:25 49.90004 6.02302 27889 ft 417 kts 296°
2026-05-05 08:26 49.91424 5.98365 27879 ft 418 kts 296°
2026-05-05 08:26 49.92839 5.94426 27880 ft 418 kts 296°
2026-05-05 08:26 49.94258 5.90474 27881 ft 418 kts 296°
2026-05-05 08:26 49.95681 5.86523 27883 ft 419 kts 296°
2026-05-05 08:27 49.97103 5.82570 27882 ft 419 kts 296°
2026-05-05 08:27 49.98522 5.78613 27880 ft 419 kts 296°
2026-05-05 08:27 49.99939 5.74648 27879 ft 420 kts 296°
2026-05-05 08:27 50.01338 5.70722 27880 ft 420 kts 296°
2026-05-05 08:28 50.02755 5.66740 27877 ft 420 kts 296°
2026-05-05 08:28 50.04173 5.62758 27876 ft 421 kts 296°
2026-05-05 08:28 50.05590 5.58770 27880 ft 421 kts 295°
2026-05-05 08:28 50.07007 5.54771 27887 ft 421 kts 295°
2026-05-05 08:29 50.08419 5.50777 27884 ft 421 kts 295°
2026-05-05 08:29 50.09836 5.46773 27885 ft 421 kts 295°
2026-05-05 08:29 50.11233 5.42827 27887 ft 421 kts 295°
2026-05-05 08:30 50.14061 5.34804 27884 ft 422 kts 295°
2026-05-05 08:30 50.15471 5.30793 27886 ft 422 kts 295°
2026-05-05 08:30 50.16890 5.26753 27568 ft 421 kts 295°
2026-05-05 08:30 50.18284 5.22780 25953 ft 421 kts 296°
2026-05-05 08:31 50.19689 5.18764 24358 ft 420 kts 296°
2026-05-05 08:31 50.21083 5.14775 22866 ft 416 kts 297°
2026-05-05 08:31 50.22457 5.10842 21417 ft 409 kts 297°
2026-05-05 08:31 50.23802 5.06982 20122 ft 401 kts 297°
2026-05-05 08:32 50.25121 5.03189 18890 ft 393 kts 297°
2026-05-05 08:32 50.26413 4.99465 17631 ft 386 kts 298°
2026-05-05 08:32 50.27671 4.95828 16651 ft 373 kts 298°
2026-05-05 08:32 50.28850 4.92417 16129 ft 350 kts 298°
2026-05-05 08:33 50.29981 4.89147 15544 ft 333 kts 298°
2026-05-05 08:33 50.31076 4.85978 14994 ft 329 kts 298°
2026-05-05 08:33 50.32159 4.82836 14442 ft 327 kts 298°
2026-05-05 08:33 50.33232 4.79719 13877 ft 324 kts 299°
2026-05-05 08:34 50.34294 4.76632 13264 ft 321 kts 299°
2026-05-05 08:34 50.35347 4.73567 12692 ft 318 kts 300°
2026-05-05 08:34 50.36391 4.70529 12116 ft 317 kts 300°
2026-05-05 08:34 50.37425 4.67515 11536 ft 318 kts 300°
2026-05-05 08:35 50.38473 4.64460 10939 ft 319 kts 300°
2026-05-05 08:35 50.39525 4.61387 10337 ft 320 kts 300°
2026-05-05 08:35 50.40557 4.58355 10104 ft 308 kts 300°
2026-05-05 08:35 50.41542 4.55448 9855 ft 298 kts 300°
2026-05-05 08:36 50.42508 4.52605 9717 ft 294 kts 300°
2026-05-05 08:36 50.43471 4.49777 9562 ft 294 kts 300°
2026-05-05 08:36 50.44560 4.47061 8969 ft 293 kts 314°
2026-05-05 08:36 50.46111 4.45050 8406 ft 289 kts 334°
2026-05-05 08:37 50.47967 4.44046 8007 ft 279 kts 353°
2026-05-05 08:37 50.49884 4.43843 7499 ft 276 kts 360°
2026-05-05 08:37 50.51794 4.43719 6996 ft 274 kts 360°
2026-05-05 08:37 50.53693 4.43594 6508 ft 271 kts 360°
2026-05-05 08:38 50.55571 4.43474 5994 ft 269 kts 360°
2026-05-05 08:38 50.57436 4.43356 5462 ft 267 kts 360°
2026-05-05 08:38 50.59291 4.43238 4801 ft 269 kts
2026-05-05 08:38 50.61159 4.43116 4410 ft 263 kts
2026-05-05 08:39 50.62926 4.42993 4284 ft 246 kts 359°
2026-05-05 08:39 50.64579 4.42833 4176 ft 230 kts 359°
2026-05-05 08:39 50.66130 4.42661 4078 ft 217 kts 359°
2026-05-05 08:39 50.67588 4.42497 3985 ft 205 kts 359°
2026-05-05 08:40 50.68535 4.42392 3923 ft 197 kts 359°
2026-05-05 08:40 50.69867 4.42246 3838 ft 187 kts 359°
2026-05-05 08:40 50.71132 4.42108 3758 ft 178 kts 360°
2026-05-05 08:40 50.72356 4.42192 3575 ft 176 kts 17°
2026-05-05 08:41 50.73532 4.42727 3314 ft 176 kts 18°
2026-05-05 08:41 50.74706 4.43285 3060 ft 176 kts 20°
2026-05-05 08:41 50.75873 4.43868 2817 ft 175 kts 18°
2026-05-05 08:41 50.77046 4.44385 2564 ft 175 kts 17°
2026-05-05 08:42 50.78222 4.44877 2315 ft 175 kts 16°
2026-05-05 08:42 50.79390 4.45355 2117 ft 170 kts 16°
2026-05-05 08:42 50.80469 4.45793 2044 ft 146 kts 16°
2026-05-05 08:42 50.81374 4.46160 2000 ft 123 kts 17°
2026-05-05 08:43 50.82177 4.46488 1961 ft 117 kts 17°
2026-05-05 08:43 50.82943 4.46807 1775 ft 113 kts 17°
2026-05-05 08:43 50.83703 4.47121 1521 ft 113 kts 15°
2026-05-05 08:43 50.84468 4.47416 1263 ft 113 kts 16°
2026-05-05 08:44 50.85237 4.47754 964 ft 117 kts 14°
2026-05-05 08:44 50.86043 4.47989 775 ft 116 kts 13°
2026-05-05 08:44 50.86810 4.48315 561 ft 114 kts 19°
2026-05-05 08:44 50.87555 4.48674 465 ft 111 kts 18°
2026-05-05 08:45 50.88301 4.48989 308 ft 110 kts 14°
2026-05-05 08:45 50.89033 4.49284 181 ft 104 kts 15°
2026-05-05 08:45 50.89490 4.49475 165 ft 36 kts 16°
2026-05-05 08:45 50.89608 4.49532 164 ft 0 kts 14°
2026-05-05 08:46 50.89798 4.49603 158 ft 46 kts 13°
2026-05-05 08:46 50.90044 4.49694 145 ft 20 kts 12°
2026-05-05 08:46 50.90169 4.49707 143 ft 16 kts 357°
2026-05-05 08:46 50.90276 4.49685 138 ft 15 kts 344°
2026-05-05 08:47 50.90370 4.49639 136 ft 13 kts 342°
2026-05-05 08:47 50.90436 4.49576 134 ft 10 kts 322°
2026-05-05 08:47 50.90448 4.49477 130 ft 9 kts 250°
2026-05-05 08:47 50.90428 4.49406 132 ft 5 kts 244°
2026-05-05 08:48 50.90419 4.49380 132 ft 0 kts 243°
2026-05-05 08:48 50.90418 4.49377 132 ft 3 kts 243°
2026-05-05 08:48 50.90392 4.49297 134 ft 14 kts 242°
2026-05-05 08:48 50.90329 4.49117 136 ft 21 kts 243°
2026-05-05 08:49 50.90314 4.48959 135 ft 10 kts 314°
2026-05-05 08:49 50.90371 4.48918 126 ft 9 kts 333°
2026-05-05 08:49 50.90379 4.48911 127 ft 0 kts 333°